This is the latest recevied weather packets stored in our database for station/object OH7GGX-14. If no packets are shown the sender has not sent any weather packets the latest 10 day(s).
| Time | Temp. | Humidity | Pressure | Rain* | Wind** | Luminosity | Snow |
|---|---|---|---|---|---|---|---|
| 1777897895 | 8.89° C | 91% | 1004.4 hPa | 0.25 mm | - | - | - |
| 1777897295 | 8.89° C | 91% | 1004.5 hPa | 0.25 mm | - | - | - |
| 1777896695 | 8.89° C | 90% | 1004.6 hPa | 0.25 mm | - | - | - |
| 1777896095 | 9.44° C | 87% | 1004.8 hPa | 0.25 mm | - | - | - |
| 1777894295 | 9.44° C | 80% | 1005.3 hPa | 0 mm | - | - | - |
| 1777893695 | 10° C | 77% | 1005.5 hPa | 0 mm | - | - | - |
| 1777893096 | 10° C | 74% | 1005.6 hPa | 0 mm | - | - | - |
| 1777892496 | 10.56° C | 71% | 1005.6 hPa | 0 mm | - | - | - |
| 1777891896 | 11.11° C | 66% | 1005.7 hPa | 0 mm | - | - | - |
| 1777891296 | 11.11° C | 64% | 1006.1 hPa | 0 mm | - | - | - |
| 1777890696 | 11.67° C | 59% | 1006.2 hPa | 0 mm | - | - | - |
| 1777890096 | 11.67° C | 56% | 1006.2 hPa | 0 mm | - | - | - |
| 1777889496 | 12.22° C | 56% | 1006.3 hPa | 0 mm | - | - | - |
| 1777888896 | 12.22° C | 55% | 1006.3 hPa | 0 mm | - | - | - |
| 1777888296 | 12.78° C | 55% | 1006.3 hPa | 0 mm | - | - | - |
| 1777887696 | 12.78° C | 54% | 1006.4 hPa | 0 mm | - | - | - |
| 1777887096 | 12.78° C | 53% | 1006.5 hPa | 0 mm | - | - | - |
| 1777886496 | 12.78° C | 53% | 1006.5 hPa | 0 mm | - | - | - |
| 1777885896 | 13.33° C | 53% | 1006.8 hPa | 0 mm | - | - | - |
| 1777885296 | 13.33° C | 53% | 1006.6 hPa | 0 mm | - | - | - |
| 1777884696 | 13.33° C | 52% | 1006.6 hPa | 0 mm | - | - | - |
| 1777884096 | 13.33° C | 53% | 1006.7 hPa | 0 mm | - | - | - |
| 1777883496 | 12.78° C | 53% | 1006.8 hPa | 0 mm | - | - | - |
| 1777882896 | 12.78° C | 53% | 1006.9 hPa | 0 mm | - | - | - |
| 1777882296 | 12.78° C | 53% | 1007 hPa | 0 mm | - | - | - |
* Rain latest hour (hover to see other rain measurements)
** Current wind speed in m/s (hover to see current wind gust speed)